Time,TemperatureF,DewpointF,PressureIn,WindDirection,WindDirectionDegrees,WindSpeedMPH,WindSpeedGustMPH,Humidity,HourlyPrecipIn,Conditions,Clouds,dailyrainin,SoftwareType,DateUTC
2014-08-27 00:01:00,75.8,73.3,29.97,NNW,338,0.0,0.0,92,0.00,,---,0.00,VWS V14.01,2014-08-27 05:01:00,
2014-08-27 00:06:00,75.8,73.6,29.97,NNW,338,0.0,0.0,93,0.00,,---,0.00,VWS V14.01,2014-08-27 05:06:00,
2014-08-27 00:11:00,75.8,73.6,29.97,NNW,338,0.0,0.0,93,0.00,,---,0.00,VWS V14.01,2014-08-27 05:11:00,
2014-08-27 00:16:00,75.6,73.4,29.97,NNW,338,0.0,0.0,93,0.00,,---,0.00,VWS V14.01,2014-08-27 05:16:00,
2014-08-27 00:21:00,75.4,73.2,29.97,NNW,338,0.0,0.0,93,0.00,,---,0.00,VWS V14.01,2014-08-27 05:21:00,
2014-08-27 00:26:00,75.3,73.1,29.97,NNW,338,0.0,0.0,93,0.00,,---,0.00,VWS V14.01,2014-08-27 05:26:00,
2014-08-27 00:31:00,75.3,73.1,29.97,NNW,338,0.0,0.0,93,0.00,,---,0.00,VWS V14.01,2014-08-27 05:31:00,
2014-08-27 00:36:00,75.1,73.3,29.97,NNW,338,0.0,1.0,94,0.00,,---,0.00,VWS V14.01,2014-08-27 05:36:00,
2014-08-27 00:41:00,75.4,73.6,29.97,NNW,338,0.0,2.0,94,0.00,,---,0.00,VWS V14.01,2014-08-27 05:41:00,
2014-08-27 00:46:00,75.6,73.8,29.98,North,358,0.0,3.0,94,0.00,,---,0.00,VWS V14.01,2014-08-27 05:46:00,
2014-08-27 00:51:00,75.8,73.9,29.98,North,358,0.0,0.0,94,0.00,,---,0.00,VWS V14.01,2014-08-27 05:51:00,
2014-08-27 00:56:00,75.8,73.9,29.98,North,358,0.0,0.0,94,0.00,,---,0.00,VWS V14.01,2014-08-27 05:56:00,
2014-08-27 01:01:00,75.8,73.9,29.98,North,358,0.0,0.0,94,0.00,,---,0.00,VWS V14.01,2014-08-27 06:01:00,
2014-08-27 01:06:00,75.8,73.9,29.98,North,358,0.0,2.0,94,0.00,,---,0.00,VWS V14.01,2014-08-27 06:06:00,
2014-08-27 01:11:00,75.8,73.9,29.98,North,358,0.0,0.0,94,0.00,,---,0.00,VWS V14.01,2014-08-27 06:11:00,
2014-08-27 01:16:00,75.8,73.9,29.97,North,358,0.0,0.0,94,0.00,,---,0.00,VWS V14.01,2014-08-27 06:16:00,
2014-08-27 01:21:00,75.8,73.9,29.97,North,358,0.0,0.0,94,0.00,,---,0.00,VWS V14.01,2014-08-27 06:21:00,
2014-08-27 01:26:00,75.6,73.8,29.97,North,358,0.0,1.0,94,0.00,,---,0.00,VWS V14.01,2014-08-27 06:26:00,
2014-08-27 01:31:00,75.4,73.6,29.97,North,358,0.0,0.0,94,0.00,,---,0.00,VWS V14.01,2014-08-27 06:31:00,
2014-08-27 01:36:00,75.3,73.1,29.97,North,358,0.0,0.0,93,0.00,,---,0.00,VWS V14.01,2014-08-27 06:36:00,
2014-08-27 01:41:00,74.9,72.4,29.97,North,358,0.0,0.0,92,0.00,,---,0.00,VWS V14.01,2014-08-27 06:41:00,
2014-08-27 01:46:00,74.4,71.9,29.97,North,358,0.0,0.0,92,0.00,,---,0.00,VWS V14.01,2014-08-27 06:46:00,
2014-08-27 01:51:00,74.0,71.5,29.97,North,358,0.0,0.0,92,0.00,,---,0.00,VWS V14.01,2014-08-27 06:51:00,
2014-08-27 01:56:00,73.7,71.2,29.97,North,358,0.0,0.0,92,0.00,,---,0.00,VWS V14.01,2014-08-27 06:56:00,
2014-08-27 02:01:00,73.5,71.0,29.95,North,358,0.0,0.0,92,0.00,,---,0.00,VWS V14.01,2014-08-27 07:01:00,
2014-08-27 02:06:00,73.2,70.7,29.95,North,358,0.0,0.0,92,0.00,,---,0.00,VWS V14.01,2014-08-27 07:06:00,
2014-08-27 02:11:00,72.8,70.3,29.95,North,358,0.0,0.0,92,0.00,,---,0.00,VWS V14.01,2014-08-27 07:11:00,
2014-08-27 02:16:00,72.7,70.2,29.95,North,358,0.0,0.0,92,0.00,,---,0.00,VWS V14.01,2014-08-27 07:16:00,
2014-08-27 02:21:00,72.5,70.1,29.95,North,358,0.0,0.0,92,0.00,,---,0.00,VWS V14.01,2014-08-27 07:21:00,
2014-08-27 02:26:00,72.3,69.8,29.95,North,358,0.0,0.0,92,0.00,,---,0.00,VWS V14.01,2014-08-27 07:26:00,
2014-08-27 02:31:00,72.1,69.7,29.95,North,358,0.0,0.0,92,0.00,,---,0.00,VWS V14.01,2014-08-27 07:31:00,
2014-08-27 02:36:00,72.0,69.6,29.95,North,358,0.0,0.0,92,0.00,,---,0.00,VWS V14.01,2014-08-27 07:36:00,
2014-08-27 02:40:00,71.8,69.3,29.95,North,358,0.0,0.0,92,0.00,,---,0.00,VWS V14.01,2014-08-27 07:40:00,
2014-08-27 02:45:00,71.6,69.2,29.95,North,358,0.0,0.0,92,0.00,,---,0.00,VWS V14.01,2014-08-27 07:45:00,
2014-08-27 02:50:00,71.5,69.4,29.95,North,358,0.0,0.0,93,0.00,,---,0.00,VWS V14.01,2014-08-27 07:50:00,
2014-08-27 02:55:00,71.5,69.4,29.95,North,358,0.0,0.0,93,0.00,,---,0.00,VWS V14.01,2014-08-27 07:55:00,
2014-08-27 03:00:00,71.3,69.5,29.95,North,358,0.0,0.0,94,0.00,,---,0.00,VWS V14.01,2014-08-27 08:00:00,
2014-08-27 03:05:00,71.1,69.3,29.95,North,358,0.0,0.0,94,0.00,,---,0.00,VWS V14.01,2014-08-27 08:05:00,
2014-08-27 03:10:00,71.1,69.3,29.95,North,358,0.0,0.0,94,0.00,,---,0.00,VWS V14.01,2014-08-27 08:10:00,
2014-08-27 03:15:00,70.9,69.1,29.94,North,358,0.0,0.0,94,0.00,,---,0.00,VWS V14.01,2014-08-27 08:15:00,
2014-08-27 03:20:00,70.9,69.1,29.94,North,358,0.0,0.0,94,0.00,,---,0.00,VWS V14.01,2014-08-27 08:20:00,
2014-08-27 03:25:00,70.8,69.0,29.94,North,358,0.0,0.0,94,0.00,,---,0.00,VWS V14.01,2014-08-27 08:25:00,
2014-08-27 03:30:00,70.8,69.3,29.94,North,358,0.0,0.0,95,0.00,,---,0.00,VWS V14.01,2014-08-27 08:30:00,
2014-08-27 03:35:00,70.8,69.3,29.94,North,358,0.0,0.0,95,0.00,,---,0.00,VWS V14.01,2014-08-27 08:35:00,
2014-08-27 03:40:00,70.8,69.3,29.94,North,358,0.0,0.0,95,0.00,,---,0.00,VWS V14.01,2014-08-27 08:40:00,
2014-08-27 03:45:00,70.8,69.3,29.94,North,358,0.0,0.0,95,0.00,,---,0.00,VWS V14.01,2014-08-27 08:45:00,
2014-08-27 03:50:00,70.8,69.3,29.94,North,358,0.0,0.0,95,0.00,,---,0.00,VWS V14.01,2014-08-27 08:50:00,
2014-08-27 03:55:00,70.6,69.1,29.94,North,358,0.0,0.0,95,0.00,,---,0.00,VWS V14.01,2014-08-27 08:55:00,
2014-08-27 04:00:00,70.4,68.9,29.94,North,358,0.0,0.0,95,0.00,,---,0.00,VWS V14.01,2014-08-27 09:00:00,
2014-08-27 04:05:00,70.4,69.2,29.94,North,358,0.0,0.0,96,0.00,,---,0.00,VWS V14.01,2014-08-27 09:05:00,
2014-08-27 04:10:00,70.3,68.8,29.94,North,358,0.0,0.0,95,0.00,,---,0.00,VWS V14.01,2014-08-27 09:10:00,
2014-08-27 04:15:00,70.3,68.8,29.94,North,358,0.0,0.0,95,0.00,,---,0.00,VWS V14.01,2014-08-27 09:15:00,
2014-08-27 04:20:00,70.1,68.9,29.94,North,358,0.0,0.0,96,0.00,,---,0.00,VWS V14.01,2014-08-27 09:20:00,
2014-08-27 04:25:00,70.1,68.9,29.94,North,358,0.0,0.0,96,0.00,,---,0.00,VWS V14.01,2014-08-27 09:25:00,
2014-08-27 04:30:00,69.9,68.7,29.93,North,358,0.0,0.0,96,0.00,,---,0.00,VWS V14.01,2014-08-27 09:30:00,
2014-08-27 04:35:00,69.9,68.7,29.93,North,358,0.0,0.0,96,0.00,,---,0.00,VWS V14.01,2014-08-27 09:35:00,
2014-08-27 04:40:00,69.9,68.7,29.93,North,358,0.0,0.0,96,0.00,,---,0.00,VWS V14.01,2014-08-27 09:40:00,
2014-08-27 04:45:00,69.9,68.7,29.94,North,358,0.0,0.0,96,0.00,,---,0.00,VWS V14.01,2014-08-27 09:45:00,
2014-08-27 04:50:00,69.9,68.7,29.94,North,358,0.0,0.0,96,0.00,,---,0.00,VWS V14.01,2014-08-27 09:50:00,
2014-08-27 04:55:00,69.8,68.6,29.94,North,358,0.0,0.0,96,0.00,,---,0.00,VWS V14.01,2014-08-27 09:55:00,
2014-08-27 05:00:00,69.8,68.6,29.94,North,358,0.0,0.0,96,0.00,,---,0.00,VWS V14.01,2014-08-27 10:00:00,
2014-08-27 05:05:00,69.9,68.7,29.94,North,358,0.0,0.0,96,0.00,,---,0.00,VWS V14.01,2014-08-27 10:05:00,
2014-08-27 05:10:00,69.9,69.0,29.94,North,358,0.0,0.0,97,0.00,,---,0.00,VWS V14.01,2014-08-27 10:10:00,
2014-08-27 05:15:00,69.8,68.9,29.94,North,358,0.0,0.0,97,0.00,,---,0.00,VWS V14.01,2014-08-27 10:15:00,
2014-08-27 05:20:00,69.8,68.9,29.94,North,358,0.0,0.0,97,0.00,,---,0.00,VWS V14.01,2014-08-27 10:20:00,
2014-08-27 05:25:00,69.6,68.7,29.94,North,358,0.0,0.0,97,0.00,,---,0.00,VWS V14.01,2014-08-27 10:25:00,
2014-08-27 05:30:00,69.6,68.7,29.94,North,358,0.0,0.0,97,0.00,,---,0.00,VWS V14.01,2014-08-27 10:30:00,
2014-08-27 05:35:00,69.6,68.7,29.94,North,358,0.0,0.0,97,0.00,,---,0.00,VWS V14.01,2014-08-27 10:35:00,
2014-08-27 05:40:00,69.4,68.5,29.94,North,358,0.0,0.0,97,0.00,,---,0.00,VWS V14.01,2014-08-27 10:40:00,
2014-08-27 05:45:00,69.4,68.5,29.94,North,358,0.0,0.0,97,0.00,,---,0.00,VWS V14.01,2014-08-27 10:45:00,
2014-08-27 05:50:00,69.3,68.4,29.94,North,358,0.0,0.0,97,0.00,,---,0.00,VWS V14.01,2014-08-27 10:50:00,
2014-08-27 05:55:00,69.1,68.2,29.94,North,358,0.0,0.0,97,0.00,,---,0.00,VWS V14.01,2014-08-27 10:55:00,
2014-08-27 06:00:00,69.1,68.2,29.94,North,358,0.0,0.0,97,0.00,,---,0.00,VWS V14.01,2014-08-27 11:00:00,
2014-08-27 06:05:00,69.1,68.2,29.94,North,358,0.0,0.0,97,0.00,,---,0.00,VWS V14.01,2014-08-27 11:05:00,
2014-08-27 06:11:00,69.1,68.2,29.94,North,358,0.0,0.0,97,0.00,,---,0.00,VWS V14.01,2014-08-27 11:11:00,
2014-08-27 06:16:00,69.1,68.5,29.95,North,358,0.0,0.0,98,0.00,,---,0.00,VWS V14.01,2014-08-27 11:16:00,
2014-08-27 06:21:00,69.1,68.5,29.95,North,358,0.0,0.0,98,0.00,,---,0.00,VWS V14.01,2014-08-27 11:21:00,
2014-08-27 06:26:00,69.3,68.7,29.95,North,358,0.0,0.0,98,0.00,,---,0.00,VWS V14.01,2014-08-27 11:26:00,
2014-08-27 06:31:00,69.4,68.8,29.96,North,358,0.0,0.0,98,0.00,,---,0.00,VWS V14.01,2014-08-27 11:31:00,
2014-08-27 06:36:00,69.6,69.0,29.96,North,358,0.0,0.0,98,0.00,,---,0.00,VWS V14.01,2014-08-27 11:36:00,
2014-08-27 06:41:00,69.6,69.0,29.96,North,358,0.0,0.0,98,0.00,,---,0.00,VWS V14.01,2014-08-27 11:41:00,
2014-08-27 06:46:00,69.6,69.0,29.96,North,358,0.0,0.0,98,0.00,,---,0.00,VWS V14.01,2014-08-27 11:46:00,
2014-08-27 06:51:00,69.6,69.0,29.96,North,358,0.0,0.0,98,0.00,,---,0.00,VWS V14.01,2014-08-27 11:51:00,
2014-08-27 06:55:00,69.6,69.0,29.96,North,358,0.0,0.0,98,0.00,,---,0.00,VWS V14.01,2014-08-27 11:55:00,
2014-08-27 07:00:00,69.6,69.0,29.96,North,358,0.0,0.0,98,0.00,,---,0.00,VWS V14.01,2014-08-27 12:00:00,
2014-08-27 07:05:00,69.8,69.2,29.96,North,358,0.0,0.0,98,0.00,,---,0.00,VWS V14.01,2014-08-27 12:05:00,
2014-08-27 07:10:00,69.8,69.2,29.96,North,358,0.0,0.0,98,0.00,,---,0.00,VWS V14.01,2014-08-27 12:10:00,
2014-08-27 07:15:00,69.9,69.3,29.97,North,358,0.0,0.0,98,0.00,,---,0.00,VWS V14.01,2014-08-27 12:15:00,
2014-08-27 07:20:00,70.1,69.5,29.97,North,358,0.0,0.0,98,0.00,,---,0.00,VWS V14.01,2014-08-27 12:20:00,
2014-08-27 07:25:00,70.3,69.7,29.97,North,358,0.0,0.0,98,0.00,,---,0.00,VWS V14.01,2014-08-27 12:25:00,
2014-08-27 07:30:00,70.4,69.8,29.98,North,358,0.0,0.0,98,0.00,,---,0.00,VWS V14.01,2014-08-27 12:30:00,
2014-08-27 07:35:00,70.8,70.2,29.98,North,358,0.0,0.0,98,0.00,,---,0.00,VWS V14.01,2014-08-27 12:35:00,
2014-08-27 07:40:00,70.9,70.3,29.98,North,358,0.0,0.0,98,0.00,,---,0.00,VWS V14.01,2014-08-27 12:40:00,
2014-08-27 07:45:00,71.1,70.5,29.98,North,358,0.0,0.0,98,0.00,,---,0.00,VWS V14.01,2014-08-27 12:45:00,
2014-08-27 07:50:00,71.5,71.2,29.98,North,358,0.0,0.0,99,0.00,,---,0.00,VWS V14.01,2014-08-27 12:50:00,
2014-08-27 07:55:00,71.8,71.5,29.98,North,358,0.0,0.0,99,0.00,,---,0.00,VWS V14.01,2014-08-27 12:55:00,
2014-08-27 08:00:00,72.3,72.0,29.98,North,358,0.0,0.0,99,0.00,,---,0.00,VWS V14.01,2014-08-27 13:00:00,
2014-08-27 08:05:00,72.7,72.4,29.98,North,358,0.0,0.0,99,0.00,,---,0.00,VWS V14.01,2014-08-27 13:05:00,
2014-08-27 08:10:00,73.2,72.9,29.98,North,358,0.0,0.0,99,0.00,,---,0.00,VWS V14.01,2014-08-27 13:10:00,
2014-08-27 08:15:00,73.5,73.2,29.98,North,358,0.0,0.0,99,0.00,,---,0.00,VWS V14.01,2014-08-27 13:15:00,
2014-08-27 08:20:00,73.9,73.6,29.98,North,358,0.0,0.0,99,0.00,,---,0.00,VWS V14.01,2014-08-27 13:20:00,
2014-08-27 08:25:00,74.4,74.1,29.98,North,358,0.0,0.0,99,0.00,,---,0.00,VWS V14.01,2014-08-27 13:25:00,
2014-08-27 08:30:00,74.6,74.0,29.98,North,358,0.0,0.0,98,0.00,,---,0.00,VWS V14.01,2014-08-27 13:30:00,
2014-08-27 08:35:00,75.1,74.5,29.98,North,358,0.0,0.0,98,0.00,,---,0.00,VWS V14.01,2014-08-27 13:35:00,
2014-08-27 08:40:00,75.6,75.0,29.98,North,358,0.0,0.0,98,0.00,,---,0.00,VWS V14.01,2014-08-27 13:40:00,
2014-08-27 08:45:00,76.1,75.5,29.99,North,358,0.0,2.0,98,0.00,,---,0.00,VWS V14.01,2014-08-27 13:45:00,
2014-08-27 08:50:00,76.5,75.6,29.99,North,358,0.0,0.0,97,0.00,,---,0.00,VWS V14.01,2014-08-27 13:50:00,
2014-08-27 08:55:00,77.0,76.1,29.99,North,358,0.0,0.0,97,0.00,,---,0.00,VWS V14.01,2014-08-27 13:55:00,
2014-08-27 09:00:00,77.7,76.5,29.99,North,358,0.0,0.0,96,0.00,,---,0.00,VWS V14.01,2014-08-27 14:00:00,
2014-08-27 09:05:00,78.5,76.9,29.99,North,358,0.0,0.0,95,0.00,,---,0.00,VWS V14.01,2014-08-27 14:05:00,
2014-08-27 09:10:00,79.4,77.5,29.99,North,358,0.0,0.0,94,0.00,,---,0.00,VWS V14.01,2014-08-27 14:10:00,
2014-08-27 09:15:00,79.8,77.3,29.99,North,358,0.0,0.0,92,0.00,,---,0.00,VWS V14.01,2014-08-27 14:15:00,
2014-08-27 09:20:00,80.5,77.0,29.99,North,358,0.0,0.0,89,0.00,,---,0.00,VWS V14.01,2014-08-27 14:20:00,
2014-08-27 09:25:00,81.1,76.9,29.99,North,358,0.0,0.0,87,0.00,,---,0.00,VWS V14.01,2014-08-27 14:25:00,
2014-08-27 09:30:00,81.6,77.0,29.99,North,358,0.0,0.0,86,0.00,,---,0.00,VWS V14.01,2014-08-27 14:30:00,
2014-08-27 09:35:00,82.0,76.3,29.99,North,358,0.0,0.0,83,0.00,,---,0.00,VWS V14.01,2014-08-27 14:35:00,
2014-08-27 09:40:00,82.6,76.9,29.99,North,358,0.0,0.0,83,0.00,,---,0.00,VWS V14.01,2014-08-27 14:40:00,
2014-08-27 09:45:00,83.2,76.4,29.99,North,358,0.0,0.0,80,0.00,,---,0.00,VWS V14.01,2014-08-27 14:45:00,
2014-08-27 09:50:00,83.6,75.6,29.99,North,358,0.0,0.0,77,0.00,,---,0.00,VWS V14.01,2014-08-27 14:50:00,
2014-08-27 09:55:00,83.8,76.6,29.99,North,358,0.0,0.0,79,0.00,,---,0.00,VWS V14.01,2014-08-27 14:55:00,
2014-08-27 10:00:00,84.5,76.1,29.99,North,358,0.0,0.0,76,0.00,,---,0.00,VWS V14.01,2014-08-27 15:00:00,
2014-08-27 10:05:00,84.9,76.1,29.99,North,358,0.0,0.0,75,0.00,,---,0.00,VWS V14.01,2014-08-27 15:05:00,
2014-08-27 10:10:00,85.3,75.7,29.99,North,358,0.0,0.0,73,0.00,,---,0.00,VWS V14.01,2014-08-27 15:10:00,
2014-08-27 10:15:00,85.7,74.8,29.99,North,358,0.0,0.0,70,0.00,,---,0.00,VWS V14.01,2014-08-27 15:15:00,
2014-08-27 10:20:00,85.9,75.4,29.99,North,358,0.0,3.0,71,0.00,,---,0.00,VWS V14.01,2014-08-27 15:20:00,
2014-08-27 10:25:00,86.1,75.6,29.99,North,358,0.0,2.0,71,0.00,,---,0.00,VWS V14.01,2014-08-27 15:25:00,
2014-08-27 10:30:00,86.3,74.5,29.98,North,358,0.0,3.0,68,0.00,,---,0.00,VWS V14.01,2014-08-27 15:30:00,
2014-08-27 10:35:00,86.5,75.1,29.98,North,358,0.0,2.0,69,0.00,,---,0.00,VWS V14.01,2014-08-27 15:35:00,
2014-08-27 10:40:00,87.0,76.9,29.98,North,358,0.0,0.0,72,0.00,,---,0.00,VWS V14.01,2014-08-27 15:40:00,
2014-08-27 10:45:00,87.6,77.9,29.98,North,358,0.0,1.0,73,0.00,,---,0.00,VWS V14.01,2014-08-27 15:45:00,
2014-08-27 10:50:00,87.8,75.9,29.98,North,358,0.0,2.0,68,0.00,,---,0.00,VWS V14.01,2014-08-27 15:50:00,
2014-08-27 10:55:00,87.8,75.5,29.98,North,358,0.0,0.0,67,0.00,,---,0.00,VWS V14.01,2014-08-27 15:55:00,
2014-08-27 11:00:00,88.2,75.9,29.97,North,358,0.0,1.0,67,0.00,,---,0.00,VWS V14.01,2014-08-27 16:00:00,
2014-08-27 11:05:00,88.6,76.2,29.97,North,358,0.0,0.0,67,0.00,,---,0.00,VWS V14.01,2014-08-27 16:05:00,
2014-08-27 11:10:00,88.8,76.9,29.97,NW,310,0.0,2.0,68,0.00,,---,0.00,VWS V14.01,2014-08-27 16:10:00,
2014-08-27 11:15:00,89.0,77.1,29.97,West,280,0.0,3.0,68,0.00,,---,0.00,VWS V14.01,2014-08-27 16:15:00,
2014-08-27 11:20:00,89.5,75.7,29.97,West,280,0.0,2.0,64,0.00,,---,0.00,VWS V14.01,2014-08-27 16:20:00,
2014-08-27 11:25:00,89.9,76.1,29.97,West,280,0.0,0.0,64,0.00,,---,0.00,VWS V14.01,2014-08-27 16:25:00,
2014-08-27 11:30:00,90.1,75.3,29.97,West,280,1.0,3.0,62,0.00,,---,0.00,VWS V14.01,2014-08-27 16:30:00,
2014-08-27 11:35:00,90.1,76.3,29.97,ESE,110,0.0,3.0,64,0.00,,---,0.00,VWS V14.01,2014-08-27 16:35:00,
2014-08-27 11:40:00,90.5,76.2,29.97,North,11,1.0,3.0,63,0.00,,---,0.00,VWS V14.01,2014-08-27 16:40:00,
2014-08-27 11:45:00,90.5,76.2,29.97,West,271,0.0,3.0,63,0.00,,---,0.00,VWS V14.01,2014-08-27 16:45:00,
2014-08-27 11:50:00,90.7,73.9,29.97,SSE,155,1.0,1.0,58,0.00,,---,0.00,VWS V14.01,2014-08-27 16:50:00,
2014-08-27 11:55:00,90.7,76.8,29.97,West,276,0.0,3.0,64,0.00,,---,0.00,VWS V14.01,2014-08-27 16:55:00,
2014-08-27 12:00:00,91.2,73.8,29.97,West,276,0.0,1.0,57,0.00,,---,0.00,VWS V14.01,2014-08-27 17:00:00,
2014-08-27 12:05:00,91.6,77.7,29.97,NNE,29,0.0,3.0,64,0.00,,---,0.00,VWS V14.01,2014-08-27 17:05:00,
2014-08-27 12:10:00,91.6,75.2,29.97,North,0,0.0,4.0,59,0.00,,---,0.00,VWS V14.01,2014-08-27 17:10:00,
2014-08-27 12:15:00,91.4,74.0,29.97,SW,233,0.0,4.0,57,0.00,,---,0.00,VWS V14.01,2014-08-27 17:15:00,
2014-08-27 12:20:00,91.4,76.1,29.97,NNE,30,0.0,3.0,61,0.00,,---,0.00,VWS V14.01,2014-08-27 17:20:00,
2014-08-27 12:25:00,91.4,74.6,29.97,North,6,0.0,0.0,58,0.00,,---,0.00,VWS V14.01,2014-08-27 17:25:00,
2014-08-27 12:30:00,91.6,72.6,29.97,NW,311,0.0,4.0,54,0.00,,---,0.00,VWS V14.01,2014-08-27 17:30:00,
2014-08-27 12:35:00,91.4,73.0,29.97,North,4,1.0,4.0,55,0.00,,---,0.00,VWS V14.01,2014-08-27 17:35:00,
2014-08-27 12:40:00,91.4,74.0,29.97,North,4,0.0,0.0,57,0.00,,---,0.00,VWS V14.01,2014-08-27 17:40:00,
2014-08-27 12:45:00,91.8,73.9,29.96,North,4,0.0,1.0,56,0.00,,---,0.00,VWS V14.01,2014-08-27 17:45:00,
2014-08-27 12:50:00,92.1,74.7,29.96,NW,307,3.0,3.0,57,0.00,,---,0.00,VWS V14.01,2014-08-27 17:50:00,
2014-08-27 12:55:00,91.6,75.2,29.96,North,0,1.0,5.0,59,0.00,,---,0.00,VWS V14.01,2014-08-27 17:55:00,
2014-08-27 13:00:00,91.6,74.7,29.96,North,3,0.0,3.0,58,0.00,,---,0.00,VWS V14.01,2014-08-27 18:00:00,
2014-08-27 13:05:00,91.6,75.2,29.96,NNE,20,0.0,5.0,59,0.00,,---,0.00,VWS V14.01,2014-08-27 18:05:00,
2014-08-27 13:10:00,91.8,74.9,29.96,NNE,12,0.0,3.0,58,0.00,,---,0.00,VWS V14.01,2014-08-27 18:10:00,
2014-08-27 13:15:00,92.3,75.9,29.96,NNE,12,0.0,1.0,59,0.00,,---,0.00,VWS V14.01,2014-08-27 18:15:00,
2014-08-27 13:20:00,92.7,74.7,29.96,WSW,252,0.0,0.0,56,0.00,,---,0.00,VWS V14.01,2014-08-27 18:20:00,
2014-08-27 13:25:00,93.2,74.1,29.96,NNE,15,0.0,3.0,54,0.00,,---,0.00,VWS V14.01,2014-08-27 18:25:00,
2014-08-27 13:30:00,92.9,74.4,29.95,WNW,289,0.0,3.0,55,0.00,,---,0.00,VWS V14.01,2014-08-27 18:30:00,
2014-08-27 13:35:00,92.9,70.3,29.95,North,349,1.0,1.0,48,0.00,,---,0.00,VWS V14.01,2014-08-27 18:35:00,
2014-08-27 13:40:00,93.4,73.7,29.95,NNW,340,0.0,0.0,53,0.00,,---,0.00,VWS V14.01,2014-08-27 18:40:00,
2014-08-27 13:45:00,93.8,72.9,29.95,NNE,29,0.0,4.0,51,0.00,,---,0.00,VWS V14.01,2014-08-27 18:45:00,
2014-08-27 13:50:00,94.0,73.1,29.95,NNE,25,0.0,3.0,51,0.00,,---,0.00,VWS V14.01,2014-08-27 18:50:00,
2014-08-27 13:55:00,93.8,74.7,29.95,North,0,0.0,3.0,54,0.00,,---,0.00,VWS V14.01,2014-08-27 18:55:00,
2014-08-27 14:00:00,93.4,73.7,29.95,North,358,0.0,4.0,53,0.00,,---,0.00,VWS V14.01,2014-08-27 19:00:00,
2014-08-27 14:05:00,93.2,73.5,29.95,WNW,303,0.0,0.0,53,0.00,,---,0.00,VWS V14.01,2014-08-27 19:05:00,
2014-08-27 14:10:00,93.2,75.7,29.95,NNE,15,1.0,5.0,57,0.00,,---,0.00,VWS V14.01,2014-08-27 19:10:00,
2014-08-27 14:15:00,92.9,74.4,29.94,NW,321,1.0,4.0,55,0.00,,---,0.00,VWS V14.01,2014-08-27 19:15:00,
2014-08-27 14:20:00,92.9,73.8,29.94,NNE,17,0.0,1.0,54,0.00,,---,0.00,VWS V14.01,2014-08-27 19:20:00,
2014-08-27 14:25:00,93.6,74.5,29.94,NNE,15,2.0,5.0,54,0.00,,---,0.00,VWS V14.01,2014-08-27 19:25:00,
2014-08-27 14:30:00,93.6,74.5,29.94,North,2,0.0,3.0,54,0.00,,---,0.00,VWS V14.01,2014-08-27 19:30:00,
2014-08-27 14:35:00,93.4,74.8,29.94,North,2,0.0,0.0,55,0.00,,---,0.00,VWS V14.01,2014-08-27 19:35:00,
2014-08-27 14:40:00,93.2,76.8,29.94,North,2,0.0,0.0,59,0.00,,---,0.00,VWS V14.01,2014-08-27 19:40:00,
2014-08-27 14:45:00,92.5,74.0,29.93,North,2,0.0,0.0,55,0.00,,---,0.00,VWS V14.01,2014-08-27 19:45:00,
2014-08-27 14:50:00,92.3,74.3,29.93,North,2,0.0,1.0,56,0.00,,---,0.00,VWS V14.01,2014-08-27 19:50:00,
2014-08-27 14:55:00,92.1,75.7,29.93,North,2,0.0,0.0,59,0.00,,---,0.00,VWS V14.01,2014-08-27 19:55:00,
2014-08-27 15:00:00,92.1,77.2,29.93,North,2,0.0,0.0,62,0.00,,---,0.00,VWS V14.01,2014-08-27 20:00:00,
2014-08-27 15:05:00,91.6,76.2,29.93,North,2,0.0,0.0,61,0.00,,---,0.00,VWS V14.01,2014-08-27 20:05:00,
2014-08-27 15:10:00,91.6,76.7,29.93,North,2,0.0,0.0,62,0.00,,---,0.00,VWS V14.01,2014-08-27 20:10:00,
2014-08-27 15:15:00,92.1,77.7,29.92,North,2,0.0,0.0,63,0.00,,---,0.00,VWS V14.01,2014-08-27 20:15:00,
2014-08-27 15:20:00,92.9,75.9,29.92,North,2,1.0,3.0,58,0.00,,---,0.00,VWS V14.01,2014-08-27 20:20:00,
2014-08-27 15:25:00,93.6,75.6,29.92,North,2,0.0,1.0,56,0.00,,---,0.00,VWS V14.01,2014-08-27 20:25:00,
2014-08-27 15:30:00,94.0,74.8,29.91,NNE,32,0.0,2.0,54,0.00,,---,0.00,VWS V14.01,2014-08-27 20:30:00,
2014-08-27 15:35:00,94.0,74.8,29.91,NNE,32,0.0,0.0,54,0.00,,---,0.00,VWS V14.01,2014-08-27 20:35:00,
2014-08-27 15:40:00,94.7,77.1,29.91,ESE,117,0.0,0.0,57,0.00,,---,0.00,VWS V14.01,2014-08-27 20:40:00,
2014-08-27 15:45:00,94.7,75.5,29.90,NE,41,1.0,1.0,54,0.00,,---,0.00,VWS V14.01,2014-08-27 20:45:00,
2014-08-27 15:50:00,94.0,77.5,29.90,NE,41,0.0,0.0,59,0.00,,---,0.00,VWS V14.01,2014-08-27 20:50:00,
2014-08-27 15:55:00,92.7,76.3,29.90,NE,41,0.0,0.0,59,0.00,,---,0.00,VWS V14.01,2014-08-27 20:55:00,
2014-08-27 16:00:00,91.8,76.9,29.91,NE,41,0.0,0.0,62,0.00,,---,0.00,VWS V14.01,2014-08-27 21:00:00,
2014-08-27 16:05:00,91.0,78.1,29.91,NE,41,0.0,0.0,66,0.00,,---,0.00,VWS V14.01,2014-08-27 21:05:00,
2014-08-27 16:10:00,90.1,78.1,29.91,NE,41,0.0,0.0,68,0.00,,---,0.00,VWS V14.01,2014-08-27 21:10:00,
2014-08-27 16:15:00,89.7,76.8,29.91,NE,41,0.0,0.0,66,0.00,,---,0.00,VWS V14.01,2014-08-27 21:15:00,
2014-08-27 16:20:00,89.3,74.1,29.91,North,353,0.0,6.0,61,0.00,,---,0.00,VWS V14.01,2014-08-27 21:20:00,
2014-08-27 16:25:00,88.0,73.4,29.91,NNW,342,4.0,7.0,62,0.00,,---,0.00,VWS V14.01,2014-08-27 21:25:00,
2014-08-27 16:30:00,87.0,73.8,29.91,West,265,0.0,4.0,65,0.00,,---,0.00,VWS V14.01,2014-08-27 21:30:00,
2014-08-27 16:35:00,86.3,73.6,29.91,West,274,0.0,0.0,66,0.00,,---,0.00,VWS V14.01,2014-08-27 21:35:00,
2014-08-27 16:40:00,86.1,73.4,29.91,North,8,0.0,1.0,66,0.00,,---,0.00,VWS V14.01,2014-08-27 21:40:00,
2014-08-27 16:45:00,85.7,73.0,29.91,North,8,0.0,1.0,66,0.00,,---,0.00,VWS V14.01,2014-08-27 21:45:00,
2014-08-27 16:50:00,85.7,74.4,29.91,North,8,0.0,0.0,69,0.00,,---,0.00,VWS V14.01,2014-08-27 21:50:00,
2014-08-27 16:55:00,85.9,74.6,29.91,North,8,3.0,3.0,69,0.00,,---,0.00,VWS V14.01,2014-08-27 21:55:00,
2014-08-27 17:00:00,85.5,73.7,29.91,North,5,0.0,3.0,68,0.00,,---,0.00,VWS V14.01,2014-08-27 22:00:00,
2014-08-27 17:05:00,84.9,73.6,29.91,NW,316,0.0,3.0,69,0.00,,---,0.00,VWS V14.01,2014-08-27 22:05:00,
2014-08-27 17:10:00,84.3,73.5,29.91,North,0,0.0,2.0,70,0.00,,---,0.00,VWS V14.01,2014-08-27 22:10:00,
2014-08-27 17:15:00,83.8,73.0,29.92,North,350,0.0,0.0,70,0.00,,---,0.00,VWS V14.01,2014-08-27 22:15:00,
2014-08-27 17:20:00,83.2,73.2,29.92,North,350,0.0,1.0,72,0.00,,---,0.00,VWS V14.01,2014-08-27 22:20:00,
2014-08-27 17:25:00,82.4,72.5,29.92,North,350,0.0,2.0,72,0.00,,---,0.00,VWS V14.01,2014-08-27 22:25:00,